• MPC Preparation (Info)

  • MPEC 2016-Q45 : 2016 QZ10

    The following Minor Planet Electronic Circular may be linked-to from your own Web pages, but must not otherwise be redistributed electronically.

    A form allowing access to any MPEC is at the bottom of this page.


    Read MPEC 2016-Q44 Read MPEC 2016-Q46


    M.P.E.C. 2016-Q45                                Issued 2016 Aug. 29, 15:28 UT
    
         The Minor Planet Electronic Circulars contain information on unusual
             minor planets and routine data on comets.  They are published
        on behalf of Division F of the International Astronomical Union by the
              Minor Planet Center, Smithsonian Astrophysical Observatory,
                              Cambridge, MA 02138, U.S.A.
    
                 Prepared using the Tamkin Foundation Computer Network
    
                                  MPC@CFA.HARVARD.EDU
                URL https://www.minorplanetcenter.net/    ISSN 1523-6714
    
                                       2016 QZ10
    
    Observations:
         K16Q10Z* C2016 08 27.45686 23 12 53.784-10 41 40.68         21.3 wLEQ045F51
         K16Q10Z  C2016 08 27.46797 23 12 53.969-10 41 30.34         21.3 wLEQ045F51
         K16Q10Z  C2016 08 27.47909 23 12 54.154-10 41 20.29         21.5 wLEQ045F51
         K16Q10Z  C2016 08 27.49019 23 12 54.355-10 41 09.92         21.7 wLEQ045F51
         K16Q10Z HC2016 08 28.30284 23 13 18.76 -10 28 48.6          21.6 VoEQ045691
         K16Q10Z HC2016 08 28.31349 23 13 18.85 -10 28 40.8          21.3 VoEQ045691
         K16Q10Z HC2016 08 28.32420 23 13 19.04 -10 28 31.5          21.7 VoEQ045691
         K16Q10Z HC2016 08 28.35872 23 13 19.60 -10 27 58.9          21.6 RoEQ045291
         K16Q10Z HC2016 08 28.36911 23 13 19.77 -10 27 49.7          21.9 RoEQ045291
         K16Q10Z HC2016 08 29.34547 23 13 46.95 -10 12 53.2          22.0 RoEQ045291
         K16Q10Z HC2016 08 29.35934 23 13 47.16 -10 12 41.2          22.0 RoEQ045291
         K16Q10Z HC2016 08 29.37288 23 13 47.33 -10 12 27.7          22.1 RoEQ045291
    
    Observer details:
    291 LPL/Spacewatch II.  Observer R. A. Mastaler.  1.8-m f/2.7 reflector + CCD.
    691 Steward Observatory, Kitt Peak.  Observer R. A. Mastaler.  0.9-m f/3
        reflector + CCD.
    F51 Pan-STARRS 1, Haleakala.  Observers B. Gibson, T. Goggia, N. Primak,
        A. Schultz, M. Willman.  Measurers K. Chambers, S. Chastel, L. Denneau,
        H. Flewelling, M. Huber, E. Lilly, E. Magnier, R. Wainscoat, C. Waters,
        R. Weryk.  1.8-m Ritchey-Chretien + CCD.
    
    Orbital elements:
    2016 QZ10                                                Earth MOID = 0.2623 AU
    Epoch 2016 July 31.0 TT = JDT 2457600.5                 MPC
    M 352.19392              (2000.0)            P               Q
    n   0.32290740     Peri.  336.11424     +0.89792832     +0.44013703
    a   2.1041856      Node   357.77003     -0.39493497     +0.80365381
    e   0.3955732      Incl.    2.99657     -0.19429644     +0.40052459
    P   3.05           H   23.2           G   0.15           U   8
    Residuals in seconds of arc
    160827 F51  0.3-  0.3-    160828 691  0.5+  1.4+    160828 291  0.7-  0.4-
    160827 F51  0.3-  0.1-    160828 691  0.8-  0.5-    160829 291  0.1-  0.0
    160827 F51  0.3-  0.3-    160828 691  0.6-  1.0-    160829 291  0.0   0.8-
    160827 F51  0.1-  0.1-    160828 291  0.7-  0.0     160829 291  0.5-  0.2+
    
    Ephemeris:
    2016 QZ10                a,e,i = 2.10, 0.40, 3                   q = 1.2718
    Date    TT    R. A. (2000) Decl.     Delta      r     Elong.  Phase     V
    2016 07 30    22 45 22.5 -17 16 03   0.3123  1.2944   149.6    23.3    22.3
    ...
    2016 08 14    23 03 21.3 -14 00 55   0.2777  1.2756   158.6    16.8    21.8
    ...
    2016 08 22    23 09 44.5 -12 04 03   0.2687  1.2720   164.1    12.5    21.6
    ...
    2016 08 28    23 13 09.6 -10 33 06   0.2664  1.2724   168.6     9.0    21.5
    2016 08 29    23 13 37.7 -10 17 49   0.2664  1.2727   169.4     8.4    21.4
    2016 08 30    23 14 04.2 -10 02 31   0.2665  1.2730   170.1     7.8    21.4
    ...
    2016 09 05    23 16 17.4 -08 30 45   0.2695  1.2769   174.7     4.2    21.3
    ...
    2016 09 13    23 18 35.4 -06 30 42   0.2801  1.2859   176.9     2.4    21.3
    ...
    2016 09 28    23 23 25.6 -03 03 42   0.3203  1.3144   165.3    11.2    22.0
    
    A. U. Tomatic                (C) Copyright 2016 MPC           M.P.E.C. 2016-Q45
    

    Read MPEC 2016-Q44 Read MPEC 2016-Q46


    MPEC number:

    Enter an MPEC number in one of the following forms:

    • 1997-B01 (the full form)
    • J97B01 (the packed version of the full form)
    • B01 (the abbreviated form)